RH
86 85 84 86 89 95 96 94 91 91 88 96 97 95 96 91 85 81 90 68 72 67 76 71 74 91 80 71 57 49 82 91 69 54 43 31 27 26 26 28 31 30 55 58 66
88 87 86 86 86 88 87 91 95 96 92 88 94 97 93 94 87 91 42 63 71 70 76 81 91 88 84 74 68 71 83 77 52 46 39 33 28 30 30 31 36 69 58 56 59
76 75 79 77 79 85 89 88 88 87 90 94 87 86 96 97 91 65 57 68 74 66 70 70 79 80 81 69 67 67 76 56 48 36 35 37 29 28 36 34 34 73 66 60 58
76 83 85 88 88 87 84 86 85 84 83 84 95 87 95 96 86 60 49 51 62 63 66 66 83 89 80 84 65 75 60 57 50 43 38 38 36 32 31 32 35 59 60 58 59
79 84 86 88 85 84 86 84 82 83 87 87 91 95 87 93 77 48 46 50 64 71 70 69 86 84 81 62 62 72 62 53 49 48 40 38 40 37 33 28 37 56 58 58 56
83 82 85 85 84 84 83 82 81 82 83 84 86 90 96 94 57 57 52 56 62 77 75 69 77 70 73 61 61 55 59 55 48 48 41 43 42 38 33 31 42 59 61 56 54
79 86 86 84 84 81 82 81 79 79 83 85 84 87 88 81 53 60 60 55 62 76 83 77 74 65 66 68 49 52 63 59 53 50 47 42 52 51 38 33 50 59 59 54 51
84 84 84 84 85 85 83 80 79 80 80 81 81 80 88 64 63 48 48 59 62 71 78 79 76 70 63 53 50 51 53 73 55 51 49 49 72 51 41 39 45 57 56 52 49
81 79 79 84 85 84 84 83 80 79 78 78 78 84 80 55 66 54 40 63 56 73 75 73 74 74 63 79 72 61 80 68 61 51 51 55 67 50 44 42 39 45 53 50 49
78 79 79 82 83 84 85 84 80 65 67 64 69 90 68 59 49 52 54 64 60 78 86 82 93 87 91 82 87 74 62 63 69 52 55 62 65 49 42 43 40 40 45 48 48
80 81 80 83 84 86 88 90 70 69 68 72 69 78 75 62 49 57 51 52 60 78 97 93 94 94 80 77 62 54 57 59 54 44 53 61 60 54 45 38 50 46 45 47 47
80 80 84 84 87 88 90 88 74 87 98 70 64 59 48 50 53 42 67 74 72 82 84 92 93 73 66 66 72 68 68 60 48 43 49 61 61 58 49 50 40 47 45 42 44
78 83 87 88 70 79 74 72 71 70 98 75 59 57 55 45 58 51 79 84 69 73 72 79 63 59 60 67 75 77 75 61 55 36 33 46 53 50 46 49 41 38 39 40 40
79 85 86 84 66 74 80 68 69 75 97 69 68 55 47 46 59 42 47 85 81 75 61 84 57 65 64 63 62 74 55 52 51 45 84 43 80 47 42 40 46 39 41 41 38
86 87 88 88 90 88 72 72 72 76 100 37 52 50 55 52 48 51 56 90 93 84 80 74 69 73 70 62 53 62 50 53 54 43 55 52 57 50 38 38 37 43 37 36 39
92 92 90 79 81 73 70 68 73 91 95 49 47 44 54 81 49 70 80 80 91 81 69 71 65 62 58 51 49 51 62 76 72 69 90 69 60 70 48 35 32 34 37 32 42
92 80 78 74 74 71 70 81 90 98 47 60 54 45 48 91 60 50 71 100 98 99 98 74 79 60 49 63 65 73 88 99 98 99 87 59 73 59 37 28 30 31 41 32 36
81 56 56 62 64 71 71 88 100 68 74 53 53 56 57 55 89 57 62 99 98 100 98 88 94 81 58 53 64 78 89 96 91 96 86 46 69 51 33 28 19 28 32 31 32
73 59 54 75 77 71 87 95 86 72 59 66 68 66 81 79 90 86 76 71 83 95 96 95 75 70 65 46 49 80 84 54 58 61 77 62 42 31 27 23 24 22 31 40 28
82 74 78 73 76 75 94 85 80 59 53 62 96 85 86 79 95 91 68 66 80 70 65 98 96 64 58 58 50 61 57 70 88 79 65 60 45 42 32 29 25 24 34 37 34
83 86 73 67 76 94 96 90 74 53 50 78 89 86 76 92 94 95 77 78 67 70 72 97 93 90 65 64 63 55 77 78 72 81 86 69 54 27 30 30 27 27 26 36 35
73 93 59 65 95 99 90 72 58 56 53 60 78 75 73 71 93 98 95 73 67 61 70 87 99 96 85 49 39 41 66 76 91 80 86 77 60 25 27 27 28 27 26 26 43
95 82 58 66 98 98 82 71 64 62 60 62 61 58 58 72 93 80 84 72 62 67 66 75 98 96 96 79 50 45 45 70 77 74 75 70 52 24 30 35 30 30 30 42 51
95 91 90 96 98 97 94 87 87 64 71 60 61 54 72 78 70 87 78 76 68 82 69 62 96 79 79 79 76 62 62 52 66 86 66 69 45 27 28 33 34 34 37 47 51
95 91 73 98 92 83 86 98 92 90 76 69 70 64 79 96 86 93 86 80 73 85 96 94 92 80 61 69 59 61 69 74 68 60 64 46 46 34 31 32 34 35 36 45 51
96 97 95 97 73 85 94 91 90 84 90 91 90 89 78 96 100 99 99 92 90 98 98 100 95 74 72 63 62 63 58 61 66 59 58 49 40 26 26 30 34 36 38 40 46
73 79 96 86 94 97 98 89 79 83 83 84 81 92 86 93 87 89 92 95 86 95 97 99 93 90 88 64 66 81 68 64 62 55 51 63 44 34 29 32 36 38 38 40 43
Wind_Speed
20 20 20 19 19 18 17 17 17 17 17 18 18 17 16 17 20 18 15 19 10 14 8 10 16 15 16 3 4 2 3 5 6 5 6 5 1 3 1 8 5 2 9 14 33
18 19 18 18 18 19 19 19 18 18 17 17 18 18 18 18 20 17 30 18 21 13 15 12 11 12 5 6 5 6 6 7 5 6 3 5 4 7 5 6 6 6 13 33 30
21 21 20 20 20 19 19 19 19 20 20 18 17 17 18 14 6 6 4 8 23 23 24 17 14 8 6 4 7 5 6 11 4 5 0 4 2 1 11 3 6 15 18 20 17
18 19 19 19 19 19 21 20 21 21 21 20 18 16 16 10 7 9 10 10 7 24 23 18 8 7 6 11 8 4 10 11 5 3 3 1 6 4 4 5 13 22 23 19 14
20 21 21 20 20 21 21 22 22 22 21 20 19 15 11 8 13 18 24 9 11 19 23 18 16 14 11 12 10 18 12 13 17 8 4 4 3 2 5 6 13 18 20 19 14
19 21 20 21 21 21 22 23 23 22 21 20 20 19 9 21 18 24 24 15 17 23 22 22 9 14 7 9 19 9 19 17 13 6 6 4 3 3 2 6 18 20 18 17 17
23 22 21 22 22 23 24 24 25 25 24 23 21 20 15 20 16 16 19 10 19 24 15 26 28 12 8 11 18 15 11 16 16 6 5 5 7 6 6 7 17 19 16 15 16
23 23 24 25 24 24 25 26 27 29 28 27 25 23 17 7 23 35 32 25 19 26 26 22 12 5 3 2 3 5 13 12 8 11 5 9 5 9 10 8 12 15 15 16 16
22 23 25 25 25 26 27 28 31 35 33 27 23 16 14 10 26 40 35 20 18 21 17 17 2 4 6 7 5 5 6 15 5 10 7 11 3 12 9 8 11 13 15 15 14
23 25 26 26 27 27 27 29 34 34 19 15 19 7 9 9 7 17 34 24 10 7 6 11 6 6 6 10 16 13 13 5 10 7 14 11 8 5 4 13 12 11 13 15 15
24 25 26 26 27 27 27 16 5 5 7 6 9 15 20 11 23 16 19 23 12 6 10 9 7 19 20 15 7 10 5 11 7 10 9 22 13 14 11 3 8 10 11 14 16
23 25 25 27 27 27 19 3 7 5 8 14 20 21 28 16 11 16 13 18 19 21 13 6 17 17 16 11 12 9 6 5 6 9 14 11 17 10 16 8 8 10 11 17 16
24 24 25 27 29 8 15 10 12 7 5 11 8 9 8 15 12 16 8 7 20 19 20 18 6 12 17 15 14 13 11 4 3 5 4 6 4 7 6 12 10 10 13 13 20
24 24 25 26 9 19 10 20 13 4 3 7 4 4 2 5 8 11 11 2 6 23 23 13 9 18 15 16 15 17 9 8 5 5 3 3 4 8 15 17 16 17 12 12 18
25 23 23 20 17 5 15 16 12 2 4 4 1 5 4 8 5 5 16 7 10 8 12 13 16 15 19 24 16 9 7 11 6 7 3 3 2 6 6 8 19 17 16 17 16
24 23 21 15 12 10 17 16 3 2 5 5 4 13 9 6 13 4 4 8 5 8 12 7 3 11 15 11 14 8 6 7 5 5 3 7 6 5 5 8 7 18 20 20 13
25 21 20 12 6 15 13 4 4 2 7 8 12 13 13 4 8 12 4 5 2 6 9 11 2 3 8 14 5 7 8 4 5 4 6 6 8 10 6 8 9 19 18 18 14
22 16 10 5 10 12 3 5 5 5 3 11 8 18 4 5 3 6 9 6 10 6 3 12 9 5 4 7 11 15 10 3 6 4 4 3 6 6 20 19 6 11 17 20 15
19 11 6 10 11 3 3 3 6 5 10 9 14 5 5 8 6 1 6 7 6 12 2 5 3 4 5 5 10 7 6 8 4 1 4 4 5 9 6 7 6 8 11 15 17
13 6 4 12 7 3 4 4 3 6 9 6 3 7 5 9 7 3 4 5 5 7 3 2 4 5 5 3 1 12 7 4 2 3 3 3 3 5 5 7 5 6 10 14 15
6 3 7 12 3 4 2 5 5 8 12 4 4 5 5 3 4 3 1 4 5 4 7 4 2 2 2 4 8 4 6 4 4 3 4 1 5 2 4 5 8 7 5 7 13
3 3 11 13 3 1 2 3 13 9 7 4 4 5 4 9 5 4 5 4 4 3 8 6 3 3 3 7 1 3 6 5 4 4 2 4 5 3 4 6 6 7 7 4 8
1 2 6 5 3 3 6 8 5 8 7 4 5 4 3 4 4 5 5 5 4 2 3 7 5 3 3 5 5 2 2 5 4 3 5 4 4 3 7 6 4 7 3 4 9
2 3 4 3 1 2 6 4 7 7 7 7 6 6 6 4 2 5 4 4 5 5 5 9 4 5 5 6 5 3 2 4 5 3 2 5 3 2 2 4 5 5 6 7 8
3 0 2 3 3 8 4 3 7 7 4 6 4 5 6 3 6 4 4 2 3 6 5 3 3 3 2 6 5 5 5 6 6 4 6 7 8 3 4 4 3 6 5 8 8
2 2 3 3 5 3 3 4 5 8 3 5 5 12 4 2 2 4 4 2 2 4 2 0 2 3 2 3 4 3 4 7 5 6 5 6 17 4 2 4 4 4 8 7 6
2 3 1 4 4 3 3 5 7 8 4 5 8 7 5 5 10 10 5 10 3 4 2 1 3 3 2 2 3 2 11 9 6 7 9 12 15 2 3 6 8 8 7 9 8
Wind_Direction
337 334 327 328 336 336 328 319 325 331 316 316 320 316 305 307 310 296 257 240 220 239 208 208 213 239 224 222 190 166 236 216 216 212 249 308 175 32 310 100 45 92 146 154 146
343 338 334 331 324 324 323 329 331 324 322 319 311 315 313 306 308 270 275 245 238 239 202 195 201 221 195 184 190 197 215 215 216 238 283 266 167 139 96 96 38 62 101 142 143
329 326 326 324 324 326 325 323 320 317 319 315 315 304 316 309 315 243 37 256 244 209 206 210 225 213 217 164 201 205 221 228 269 217 63 319 102 148 123 145 169 141 140 149 153
329 327 325 326 326 327 322 319 317 315 312 307 307 305 302 297 257 180 25 344 176 198 190 210 226 202 203 206 198 249 217 250 252 29 335 242 329 111 131 166 155 153 155 154 158
328 330 328 327 327 325 322 321 315 312 308 306 300 299 308 239 237 227 293 304 204 193 195 204 210 204 191 204 213 220 254 220 253 252 210 313 314 329 199 134 138 144 155 161 159
329 328 328 326 323 322 319 316 312 308 305 299 294 289 260 253 264 258 263 245 216 199 210 199 214 207 215 228 211 198 220 246 255 235 201 186 258 40 202 122 144 154 164 165 166
328 327 324 323 320 316 314 312 309 301 295 290 288 280 258 243 265 259 270 266 221 204 218 219 219 189 200 217 233 237 234 225 242 186 207 140 269 204 239 127 153 164 167 170 175
329 329 327 323 318 314 311 309 306 297 287 282 280 275 259 261 252 265 259 270 264 218 222 235 222 233 207 320 251 209 216 228 217 201 199 146 241 226 238 154 174 169 170 175 181
329 329 328 324 320 315 312 308 301 292 283 278 275 256 269 263 230 238 241 233 253 219 229 233 124 201 179 195 192 221 227 215 188 198 181 182 189 230 232 193 182 179 175 178 183
330 328 328 324 321 319 316 311 303 292 290 264 239 264 252 259 272 281 231 228 216 183 228 213 191 192 198 189 209 194 215 178 212 215 212 209 202 227 232 205 193 188 181 179 182
327 328 329 326 324 320 321 327 354 343 10 283 270 270 305 269 306 299 233 222 212 191 210 184 194 208 199 189 197 192 155 222 242 229 207 219 211 211 242 214 200 194 184 183 183
328 327 329 328 326 321 318 283 283 316 292 268 253 257 246 245 278 273 310 201 203 206 200 182 221 200 196 179 181 228 230 228 272 268 205 209 214 203 225 235 197 205 199 188 180
327 327 328 332 328 346 324 317 326 345 282 286 240 244 240 204 237 241 203 295 199 197 203 209 212 169 185 189 193 217 218 198 228 10 10 98 305 240 225 220 213 202 208 191 181
326 326 329 335 344 332 304 337 331 351 300 282 239 264 180 227 245 240 195 314 225 203 203 227 192 171 186 196 187 209 185 218 213 147 218 149 256 241 227 226 215 215 198 188 185
324 323 327 331 299 298 315 328 331 7 347 277 350 328 318 193 251 221 155 178 244 193 186 200 183 199 190 196 182 206 152 207 203 186 160 228 72 266 226 227 223 208 203 202 183
327 319 327 339 314 289 317 323 341 43 265 313 10 343 338 276 249 112 126 89 305 223 196 173 338 193 198 194 200 142 93 36 9 154 233 195 170 250 226 210 219 208 203 200 179
324 324 325 322 316 330 331 10 37 141 315 353 333 328 317 356 244 242 184 145 232 201 172 191 239 315 163 189 182 139 130 153 191 201 220 194 202 237 230 265 209 195 192 193 172
326 334 351 348 335 333 11 44 77 274 353 304 320 309 283 295 249 230 204 208 193 295 146 175 207 164 180 192 180 164 156 169 190 182 171 186 218 243 222 247 257 186 193 185 169
335 346 342 1 339 357 64 28 209 328 331 325 324 330 14 353 312 27 231 213 193 190 91 143 231 125 249 199 152 170 192 160 114 7 87 214 280 314 221 238 191 178 167 182 177
340 320 28 347 357 43 68 254 256 309 321 322 304 350 320 350 341 357 166 194 207 198 178 78 129 189 189 164 309 183 153 157 21 141 193 231 259 224 328 248 199 201 183 177 171
345 13 352 343 332 48 138 237 296 297 323 352 304 299 296 345 298 282 220 83 199 218 165 112 58 324 105 194 188 121 168 52 108 136 156 134 252 247 275 314 202 202 199 153 158
2 1 343 351 45 345 314 265 301 295 316 260 234 262 297 335 329 327 353 34 27 47 215 148 81 130 197 330 20 118 153 136 130 250 161 141 279 316 326 304 222 192 194 127 141
58 303 330 349 56 327 303 305 275 323 331 322 295 310 325 311 317 311 338 343 33 15 197 164 132 103 69 331 356 129 128 143 119 90 195 135 257 3 26 29 72 143 102 105 126
42 350 323 36 145 310 323 302 323 307 303 338 300 299 1 319 295 296 318 323 3 12 340 123 137 157 177 198 145 136 163 124 135 125 186 221 253 314 352 109 92 85 91 98 129
36 349 221 302 331 313 314 280 308 337 306 299 320 3 356 308 313 346 323 243 8 35 42 80 140 132 118 134 124 181 177 159 168 173 185 245 261 11 220 218 196 142 102 102 120
82 19 345 267 262 316 336 291 318 328 291 312 350 329 329 313 284 311 359 330 209 5 98 100 168 89 46 154 132 177 201 195 167 195 222 234 261 134 123 122 137 181 140 129 132
355 345 307 287 317 8 313 281 303 330 255 257 315 310 315 346 313 292 174 264 262 138 92 307 104 91 226 208 136 254 215 198 187 200 188 218 233 96 136 183 182 181 176 162 155